Location: Newark
(48.8833°N, 0.9236°W)
Time: 07:29:36
(UTC+00:00)

Tiros 1 despin weight - Pass Details

Date: 23 November 2019
Orbit: 594 x 642 km, 48.2° (Epoch: 12 December)

Event Time Altitude Azimuth Distance (km) Brightness Sun altitude
Rises 13:37:40 0° 257° (WSW) 2,825 ? 16.7°
Reaches altitude 10° 13:39:57 10° 256° (WSW) 1,925 ? 16.6°
Maximum altitude 13:44:21 77° 171° (S) 615 ? 16.2°
Drops below altitude 10° 13:48:48 10° 86° (E) 1,940 ? 15.9°
Sets 13:51:06 0° 85° (E) 2,850 ? 15.7°
